Location: Clarion
(42.7316°N, 93.7330°W)
Time: 21:55:53
(UTC+00:00)

Cosmos 2221 Rocket - Pass Details

Date: 22 April 2026
Orbit: 615 x 642 km, 82.5° (Epoch: 12 May)

Event Time Altitude Azimuth Distance (km) Brightness Sun altitude
Rises 02:23:27 0° 359° (N) 2,900 7.5 -14.0°
Reaches altitude 10° 02:25:49 10° 8° (N) 1,993 6.5 -14.4°
Maximum altitude 02:29:55 37° 77° (ENE) 972 4.2 -15.0°
Enters shadow 02:31:37 27° 121° (ESE) 1,212 4.4 -15.3°
